OBJECT J, 66003

Orbit data source: Space-Track

You're viewing an Uncataloged Satellite

Recently launched and/or uncataloged satellites may have evolving metadata. Metadata may include but not limited to: Owner, Maufacturer, Bus, Motor, and Mission.

OBJECT J, 66003 is a satellite owned by Zhongguo Xingwang (CN) in LEO that was launched on Thu, 16 Oct 2025 UTC via a CHANG ZHENG 8A launch vehicle from the Wenchang Satellite Launch Center (WSC). Unknown objects in Earth's orbit typically refer to objects detected orbiting the Earth but have not yet been identified or cataloged. These objects could be anything from previously untracked satellites, spent rocket stages, debris from satellite collisions, or even natural meteoroids temporarily captured by Earth's gravity.

Loading next visibility...
Identifier
66003, 2025-231J
Orbit
LEO
Country
Flag of CNCN / PRC
Related business
Manufacturer
CAST
Mission
Operational spacecraft
Bus & Motor
GUOWANG C, Unknown motor
Mass
~800 kg wet, ~800 kg dry
Launch date (UTC)
2025-10-16 (4 days ago)
Launch vehicle
CHANG ZHENG 8A
Launch site
Wenchang Satellite Launch Center (WSC)
Object type
Unknown
Shape & HBR
Unknown
Radar Cross Section
RCS unknown

Expand to show TLE details & history
Last TLE update: 2 days ago

TLE from 2 days ago
0 OBJECT J
1 66003U 25231J   25291.38376450 -.00000113  00000-0  24002-4 0  9991
2 66003  50.0060 348.3683 0005529 279.1345  80.8934 14.06117933   338
Epoch: 2025-10-18T09:12Z
TLE epoch observation values (Epoch: 2025-10-18T09:12:37.252Z)
Latitude
-0.00009°
Longitude
-176.90256°
Altitude
872.58 km
Speed
7.418 km/s
True Right ascension
23h 13m 28s
True Declination
0° 00' 00"
Sunlit
Object was in full shadow at epoch
Visualization orbit readout
Latitude
Unknown
Longitude
Unknown
Altitude
Unknown
Speed
Unknown
Apparent Right ascension
Unknown
Apparent Declination
Unknown
Sunlit
N/A
Visualization observer readout
Local Sidereal Time
00:37:47
Azimuth
Unknown
Elevation
Unknown
Doppler factor
Unknown
Orbital elements
Apogee altitude
877.427 km
Perigee altitude
869.408 km
Semi-major axis
7,251.555 km
Eccentricity
0.00055
Inclination
50.006°
RAAN
348.3683°
Arg. of periapsis
279.1345°
True anomaly
80.95597°
Mean anomaly
80.8934°
Eccentric anomaly
80.92468°
Mean motion
3.51477 °/min
Orbital period
102.43 mins
BSTAR
0.000024002
Loading maneuver chart data...
Computing Atmospheric mass density...
Loading historical data...
Loading historical data...
Loading historical data...
Loading historical data...
Loading historical data...
Loading historical data...
Loading historical data...

Documentation

Showing up to 5 results
|